Home   Weather   Karachi   Past weeks

Flag for Pakistan Past Weather in Karachi, Sindh, Pakistan — Yesterday and Last 2 Weeks

Now
81 °F

Passing clouds.


Feels Like: 85 °F
Forecast: 81 / 89 °F
Wind: 16 mph from West

Location: Karachi Airport

Current Time: Sep 28, 2016 at 6:59:49 AM

Latest Report: Sep 28, 2016 at 4:55 AM


Visibility: N/A

Pressure: 29.74 "Hg

Humidity: 74%

Dew Point: 72 °F

Location of KarachiLocation

Past Weather in Karachi — Graph

°F

Karachi Temperature Yesterday

Maximum temperature yesterday: 90 °F (at 2:25 PM)
Minimum temperature yesterday: 81 °F (at 12:25 AM)
Average temperature yesterday: 83 °F

High & Low Weather Summary for the Past Weeks

 TemperatureHumidityPressure
High93 °F (Sep 15, 11:55 AM)84% (Sep 13, 4:25 AM)29.83 "Hg (Sep 13, 4:25 AM)
Low79 °F (Sep 13, 4:25 AM)44% (Sep 19, 12:55 PM)29.62 "Hg (Sep 17, 2:25 PM)
Average84 °F66%29.73 "Hg
* Reported Sep 13 4:25 AM — Sep 28 4:55 AM, Karachi, Weather by CustomWeather, © 2016

Note: Actual official high and low records may vary slightly from our data, if they occured in-between our weather recording intervals... More about our weather records

Advertising

Karachi Weather History for the Previous 24 Hours

Scroll right to see more
 ConditionsComfort  
Time TempWeatherWind HumidityBarometerVisibility
4:55 AM
Wed, Sep 28
81 °FPassing clouds.16 mph74%29.74 "HgN/A
4:25 AM81 °FPassing clouds.14 mph74%29.74 "Hg4 mi
3:55 AM81 °FPassing clouds.12 mph74%29.74 "Hg4 mi
3:25 AM81 °FPassing clouds.12 mph74%29.74 "Hg4 mi
2:55 AM81 °FPassing clouds.12 mph74%29.74 "Hg4 mi
2:25 AM81 °FPassing clouds.12 mph74%29.74 "Hg4 mi
1:55 AM81 °FPassing clouds.12 mph74%29.77 "Hg4 mi
1:25 AM81 °FPassing clouds.14 mph74%29.77 "Hg4 mi
12:55 AM81 °FPassing clouds.15 mph74%29.77 "Hg4 mi
12:25 AM81 °FPassing clouds.14 mph74%29.80 "Hg4 mi
11:55 PM
Tue, Sep 27
81 °FPassing clouds.16 mph74%29.80 "Hg4 mi
11:25 PM81 °FPassing clouds.14 mph74%29.80 "Hg4 mi
10:55 PM81 °FPassing clouds.9 mph74%29.80 "Hg4 mi
10:25 PM81 °FPassing clouds.12 mph79%29.80 "Hg4 mi
8:55 PM81 °FPassing clouds.12 mph74%29.77 "Hg4 mi
6:55 PM84 °FPassing clouds.12 mph62%29.77 "Hg4 mi
5:55 PM84 °FPassing clouds.13 mph66%29.74 "Hg4 mi
5:25 PM86 °FPassing clouds.12 mph62%29.74 "Hg4 mi
4:55 PM86 °FScattered clouds.12 mph59%29.74 "Hg4 mi
4:25 PM88 °FScattered clouds.15 mph55%29.74 "Hg4 mi
2:55 PM90 °FScattered clouds.14 mph55%29.74 "Hg4 mi
2:25 PM90 °FPartly sunny.18 mph52%29.77 "Hg4 mi
1:55 PM88 °FPartly sunny.13 mph55%29.77 "Hg4 mi
1:25 PM88 °FPartly sunny.16 mph55%29.77 "Hg4 mi
12:55 PM88 °FPartly sunny.15 mph55%29.80 "Hg4 mi
12:25 PM88 °FPartly sunny.18 mph55%29.80 "Hg4 mi
11:55 AM88 °FPartly sunny.18 mph59%29.80 "Hg4 mi
11:25 AM86 °FPartly sunny.22 mph62%29.83 "Hg4 mi
10:55 AM86 °FPartly sunny.21 mph62%29.83 "Hg4 mi
10:25 AM86 °FPartly sunny.17 mph62%29.83 "Hg4 mi
9:55 AM84 °FPartly sunny.21 mph66%29.83 "Hg4 mi
9:25 AM84 °FPartly sunny.18 mph66%29.83 "Hg4 mi
8:55 AM82 °FPartly sunny.17 mph70%29.83 "Hg4 mi
8:25 AM82 °FPartly sunny.18 mph70%29.83 "Hg4 mi
7:55 AM81 °FPartly sunny.17 mph74%29.83 "Hg4 mi
7:25 AM81 °FPartly sunny.17 mph74%29.80 "Hg4 mi
6:55 AM81 °FPartly sunny.13 mph74%29.80 "Hg4 mi
6:25 AM81 °FScattered clouds.13 mph74%29.80 "Hg4 mi
Weather by CustomWeather, © 2016

See weather overviewHow to use our weather pages